PROFILE

 METAR AND TAF INFORMATION
ADDS - METARS form results

(0415 UTC 25 April 2019)
http://aviationweather.gov/metar/data/
 
LFMP 250400Z AUTO 19011KT 160V220 9999 NCD 15/10 Q1006
LFMP 250330Z AUTO 20011KT 9999 NCD 14/09 Q1006
TAF LFMP 250200Z 2503/2603 18012KT 9999 NSC TEMPO 2504/2518 16025G35KT TEMPO 2509/2518 BKN020 BECMG 2518/2521 24006KT 

 AIRPORT MAP

 RUNWAY INFORMATION
Runway 13 Runway length 4150 ft Runway width 66 ft
Runway elevation 143 ft Runway displaced threshold 404 ft Runway heading 127
Runway 31 Runway length 4150 ft Runway width 66 ft
Runway elevation 131 ft Runway displaced threshold 1158 ft Runway heading 307
Runway 15 Runway length 8202 ft Runway width 148 ft
Runway elevation 130 ft Runway displaced threshold 0 ft Runway heading 148
Runway 33 Runway length 8202 ft Runway width 148 ft
Runway elevation 135 ft Runway displaced threshold 557 ft Runway heading 328

 AIRPORT FREQUENCIES
Type APP Name PERPIGNAN Frequency 120.75 MHZ
Type ATIS Name ATIS Frequency 127.875 MHZ
Type TWR Name PERPIGNAN Frequency 121.9 MHZ

 AIRPORT NEAR NAVIGATION AIDS
Type VOR-DME Name Perpignan Frequency 116250 KHZ